CZ-6A DEB, 61325

Orbit data source: Space-Track

CZ-6A DEB, 61325 is space debris in LEO originally from a launch on Tue, 06 Aug 2024 UTC launched from the Taiyaun Space Center, China (TSC). Debris objects in space refer to the collection of defunct objects orbiting the Earth. Examples of debris include non-operational satellites, rocket bodies, and fragments generated from explosions, collisions, or faulty payload assembly.

Loading next visibility...
Identifier
61325, 2024-140UN
Orbit
LEO
Country
Flag of CNCN / PRC
Related business
Manufacturer
SAST
Mission
Spacecraft
Bus & Motor
Unknown
Mass
Unknown
Launch date (UTC)
2024-08-06 (2 years ago)
Launch vehicle
Unknown
Launch site
Taiyaun Space Center, China (TSC)
Object type
Payload
Rocket body
Debris
Shape & HBR
Unknown shape, 0.1 m
Radar Cross Section
Medium (>0.1 m² and <1 m²)

Expand to show TLE details & history
Last TLE update: 17 hours ago

TLE from 17 hours ago
0 CZ-6A DEB
1 61325U 24140UN  26171.27346301  .00002792  00000-0  54118-3 0  9993
2 61325  88.9230 263.1846 0085501 167.2543 193.0860 14.60663605 95217
Epoch: 2026-06-20T06:33Z
TLE epoch observation values (Epoch: 2026-06-20T06:33:47.204Z)
Latitude
-0.00002°
Longitude
-103.75253°
Altitude
753.055 km
Speed
7.447 km/s
True Right ascension
17h 32m 44s
True Declination
0° 00' 00"
Sunlit
Object was in full shadow at epoch
Visualization orbit readout
Latitude
Unknown
Longitude
Unknown
Altitude
Unknown
Speed
Unknown
Apparent Right ascension
Unknown
Apparent Declination
Unknown
Sunlit
N/A
Visualization observer readout
Local Sidereal Time
10:18:04
Azimuth
Unknown
Elevation
Unknown
Doppler factor
Unknown
Orbital elements
Apogee altitude
748.341 km
Perigee altitude
627.51 km
Semi-major axis
7,066.062 km
Eccentricity
0.00855
Inclination
88.923°
RAAN
263.1846°
Arg. of periapsis
167.2543°
True anomaly
192.86645°
Mean anomaly
193.086°
Eccentric anomaly
192.976°
Mean motion
3.65407 °/min
Orbital period
98.52 mins
BSTAR
0.00054118
Loading maneuver chart data...
Computing Atmospheric mass density...
Loading historical data...
Loading historical data...
Loading historical data...
Loading historical data...
Loading historical data...
Loading historical data...
Loading historical data...

Documentation

Showing up to 5 results
|